Location: Peterborough
(44.3091°N, 78.3197°W)
Time: 19:23:12
(UTC-04:00)

Vanguard 3 - Pass Details

Date: 25 March 2023
Orbit: 507 x 3246 km, 33.4° (Epoch: 06 June)

Event Time Altitude Azimuth Distance (km) Brightness Sun altitude
Exits shadow 04:41:20 30° 217° (SW) 4,689 10.4 -25.7°
Maximum altitude 04:51:57 51° 163° (SSE) 3,723 10.3 -24.0°
Drops below altitude 10° 05:07:58 10° 94° (E) 5,284 12.1 -21.5°
Sets 05:11:36 0° 90° (E) 5,996 12.7 -20.9°
